Regional Weather Roundup
Issued by NWS Northern Indiana

Home | Current Version | Previous Version | Text Only | Print | Product List | Glossary Off
Versions: 1 2 3 4 5 6 7 8 9 10 11 12 13 14 15 16 17 18 19 20 21 22 23 24 25 26 27 28 29 30 31 32 33 34 35 36 37 38 39 40 41 42 43 44 45 46 47 48 49 50

000
ASUS43 KIWX 291610
RWRIWX

KIWX WEATHER ROUNDUP
NATIONAL WEATHER SERVICE NORTHERN INDIANA
1200 PM EDT FRI MAY 29 2015

NOTE: "FAIR" INDICATES FEW OR NO CLOUDS BELOW 12,000 FEET WITH NO
SIGNIFICANT WEATHER AND/OR OBSTRUCTIONS TO VISIBILITY.

* THESE STATIONS ARE NOT UNDER NWS QUALITY CONTROL. THEY ALSO MAY NOT
  REPORT WEATHER SUCH AS PRECIPITATION OR FOG.

INZ001>027-291700-
NORTHERN INDIANA

CITY           SKY/WX    TMP DP  RH WIND       PRES   REMARKS
GARY*          PTSUNNY   81  66  61 S12       30.04F
VALPARAISO     PTSUNNY   82  64  54 S16G22    30.06F
MICHIGAN CITY* PTSUNNY   81  63  54 S10G17    30.06F
LAPORTE*       PTSUNNY   82  65  55 S9G16     30.08F
KNOX*          MOSUNNY   79  63  57 S14       30.07F
SOUTH BEND     PTSUNNY   81  65  58 S14       30.08F
ELKHART*       MOSUNNY   77  64  65 S7        30.10S
GOSHEN         SUNNY     80  64  58 S10       30.10F
MONTICELLO*    MOSUNNY   78  68  71 S12G17    30.08F
LOGANSPORT*    PTSUNNY   77  61  57 SW12      30.11S
ROCHESTER*     MOSUNNY   81  68  65 S10       30.11R
WARSAW*        MOSUNNY   77  64  65 S6        30.11S
ANGOLA*        MOSUNNY   81  73  78 SW6       30.11F
FORT WAYNE     PTSUNNY   78  66  66 S13       30.12F
HUNTINGTON*    PTSUNNY   76  64  66 S9        30.12S
PERU/GRISSOM   MOSUNNY   79  67  65 S10       30.10S
MARION*        CLOUDY    78  62  59 S10       30.13S

$$
INZ028>050-291700-
CENTRAL INDIANA

CITY           SKY/WX    TMP DP  RH WIND       PRES   REMARKS
LAFAYETTE      PTSUNNY   79  64  60 S10       30.08F
KOKOMO*        MOSUNNY   81  66  61 SW14      30.11S
MUNCIE*        PTSUNNY   80  64  58 SW13G20   30.13S
INDIANAPOLIS   PTSUNNY   79  64  60 SW9       30.11S

$$
MIZ043>046-050>051-056>058-064>065-071>073-077>080-291700-
SOUTHWEST LOWER MICHIGAN

CITY           SKY/WX    TMP DP  RH WIND       PRES   REMARKS
BATTLE CREEK   MOSUNNY   79  63  57 SW15G22   30.11F
BENTON HARBOR  MOSUNNY   80  66  62 SW8       30.06F
COLDWATER*     MOSUNNY   78  63  60 S10G16    30.11F
HILLSDALE*     MOSUNNY   77  66  69 SW10      30.14S
HOLLAND        MOSUNNY   80  67  64 SW13G20   30.07F
GRAND RAPIDS   PTSUNNY   79  65  62 S16       30.08F
KALAMAZOO      MOSUNNY   79  64  60 S13G21    30.10F
STURGIS*       SUNNY     79  63  57 SW14      30.10F
THREE RIVERS*  FAIR      81  61  50 S10       30.10F

$$
OHZ001>008-015>018-024>025-291700-
NORTHWEST OHIO

CITY           SKY/WX    TMP DP  RH WIND       PRES   REMARKS
WAUSEON*       PTSUNNY   75  70  83 S12       30.13F
DEFIANCE       PTSUNNY   76  66  71 S7        30.13F
FINDLAY        CLOUDY    75  68  78 SW8       30.14R
TOLEDO EXPRESS CLOUDY    71  67  87 S8        30.13S
TOLEDO METCALF RAIN      69  66  90 S3        30.15R FOG
LIMA           CLOUDY    76  67  73 SW10      30.15R

$$
AND FOR LAKE MICHIGAN COASTAL AND OPEN LAKE BUOY OBSERVATIONS

STATION/POSITION TEMP    WIND        PRES    VSBY  WAVE
                 AIR SEA DIR/SP/G                  HT/PER
                 (F)     (DEG/KT/KT) (MB)    (MI)  (FT/S)
CALUMET HARBOR    80     180/ 13/ 18   N/A
MICHIGAN CITY     78     160/ 12/ 16   N/A
BURNS HARBOR      79     190/ 15/ 20 1017.6F
SAINT JOSEPH      69     190/  6/  7 1017.9F
SOUTH LAKE BUOY   47 38  170/ 10/ 10 1017.8F         1
4 MI NW BRIDGMAN  67 60  240/  4/  4   N/A           0
MICHIGAN CITY     69 57  210/  6/  8   N/A           0
MICHIGAN CITY CG     63              1019.9S     6   1

$$
&&


USA.gov is the U.S. government's official web portal to all federal, state and local government web resources and services.